• In Romania
  • List of Countries
  • For 7 days
  • Water Temperature
  • Satellite Maps
  • Weather Map
  • Weather Widgets
  • user-avatar
    Login

    Hourly Weather Preston

    Today, 25 June, Monday

    Time Temperature Precipitation Wind Pressure Humidity
    00:00 +14°C° 0 mm 1 mps 766 mmHg 78%
    01:00 +14°C° 0 mm 1 mps 766 mmHg 77%
    02:00 +14°C° 0 mm 1 mps 766 mmHg 77%
    03:00 +13°C° 0 mm 1 mps 766 mmHg 77%
    04:00 +14°C° 0 mm 1 mps 766 mmHg 75%
    05:00 +15°C° 0 mm 1 mps 766 mmHg 73%
    06:00 +16°C° 0 mm 1 mps 767 mmHg 70%
    07:00 +19°C° 0 mm 1 mps 767 mmHg 65%
    08:00 +20°C° 0 mm 1 mps 767 mmHg 60%
    09:00 +22°C° 0 mm 1 mps 767 mmHg 55%
    10:00 +23°C° 0 mm 1 mps 767 mmHg 53%
    11:00 +24°C° 0 mm 1 mps 767 mmHg 50%
    12:00 +25°C° 0 mm 2 mps 767 mmHg 47%
    13:00 +26°C° 0 mm 2 mps 767 mmHg 48%
    14:00 +26°C° 0 mm 2 mps 767 mmHg 49%
    15:00 +26°C° 0 mm 2 mps 767 mmHg 50%
    16:00 +26°C° 0 mm 2 mps 767 mmHg 54%
    17:00 +26°C° 0 mm 2 mps 767 mmHg 59%
    18:00 +25°C° 0 mm 2 mps 767 mmHg 63%
    19:00 +23°C° 0 mm 2 mps 767 mmHg 68%
    20:00 +21°C° 0 mm 2 mps 768 mmHg 73%
    21:00 +19°C° 0 mm 2 mps 768 mmHg 77%
    22:00 +18°C° 0 mm 2 mps 768 mmHg 79%
    23:00 +18°C° 0 mm 2 mps 768 mmHg 80%

    Tomorrow, 26 June, Tuesday

    Time Temperature Precipitation Wind Pressure Humidity
    00:00 +18°C° 0 mm 1 mps 768 mmHg 81%
    01:00 +16°C° 0 mm 2 mps 768 mmHg 81%
    02:00 +16°C° 0 mm 2 mps 768 mmHg 81%
    03:00 +15°C° 0 mm 2 mps 768 mmHg 81%
    04:00 +16°C° 0 mm 2 mps 768 mmHg 79%
    05:00 +17°C° 0 mm 2 mps 768 mmHg 76%
    06:00 +18°C° 0 mm 2 mps 768 mmHg 74%
    07:00 +19°C° 0 mm 2 mps 768 mmHg 70%
    08:00 +21°C° 0 mm 2 mps 768 mmHg 65%
    09:00 +23°C° 0 mm 2 mps 768 mmHg 61%
    10:00 +25°C° 0 mm 2 mps 768 mmHg 58%
    11:00 +26°C° 0 mm 2 mps 768 mmHg 55%
    12:00 +27°C° 0 mm 2 mps 768 mmHg 52%
    13:00 +27°C° 0 mm 2 mps 768 mmHg 51%
    14:00 +27°C° 0 mm 2 mps 767 mmHg 50%
    15:00 +28°C° 0 mm 2 mps 767 mmHg 49%
    16:00 +27°C° 0 mm 2 mps 767 mmHg 52%
    17:00 +27°C° 0 mm 2 mps 767 mmHg 55%
    18:00 +26°C° 0 mm 2 mps 767 mmHg 57%
    19:00 +24°C° 0 mm 2 mps 768 mmHg 62%
    20:00 +21°C° 0 mm 3 mps 768 mmHg 67%
    21:00 +19°C° 0 mm 3 mps 768 mmHg 72%
    22:00 +18°C° 0 mm 3 mps 768 mmHg 74%
    23:00 +17°C° 0 mm 3 mps 768 mmHg 76%

    Day after tomorrow, 27 June, Wednesday

    Time Temperature Precipitation Wind Pressure Humidity
    00:00 +16°C° 0 mm 3 mps 768 mmHg 78%
    01:00 +16°C° 0 mm 3 mps 768 mmHg 75%
    02:00 +14°C° 0 mm 3 mps 768 mmHg 72%
    03:00 +14°C° 0 mm 2 mps 768 mmHg 70%
    04:00 +15°C° 0 mm 2 mps 768 mmHg 69%
    05:00 +15°C° 0 mm 2 mps 768 mmHg 68%
    06:00 +16°C° 0 mm 2 mps 768 mmHg 67%
    07:00 +18°C° 0 mm 2 mps 768 mmHg 65%
    08:00 +19°C° 0 mm 3 mps 768 mmHg 62%
    09:00 +21°C° 0 mm 3 mps 768 mmHg 59%
    10:00 +22°C° 0 mm 3 mps 768 mmHg 57%
    11:00 +24°C° 0 mm 3 mps 768 mmHg 54%
    12:00 +26°C° 0 mm 3 mps 768 mmHg 51%
    13:00 +26°C° 0 mm 3 mps 768 mmHg 52%
    14:00 +26°C° 0 mm 3 mps 768 mmHg 52%
    15:00 +27°C° 0 mm 3 mps 767 mmHg 53%
    16:00 +26°C° 0 mm 3 mps 767 mmHg 56%
    17:00 +25°C° 0 mm 4 mps 767 mmHg 60%
    18:00 +25°C° 0 mm 4 mps 767 mmHg 63%
    19:00 +22°C° 0 mm 4 mps 768 mmHg 67%
    20:00 +20°C° 0 mm 4 mps 768 mmHg 71%
    21:00 +18°C° 0 mm 4 mps 768 mmHg 76%
    22:00 +17°C° 0 mm 4 mps 768 mmHg 76%
    23:00 +16°C° 0 mm 3 mps 768 mmHg 77%

    28 June, Thursday

    Time Temperature Precipitation Wind Pressure Humidity
    00:00 +14°C° 0 mm 3 mps 768 mmHg 78%
    01:00 +14°C° 0 mm 3 mps 768 mmHg 78%
    02:00 +14°C° 0 mm 2 mps 768 mmHg 78%
    03:00 +14°C° 0 mm 2 mps 768 mmHg 78%
    04:00 +15°C° 0 mm 2 mps 768 mmHg 77%
    05:00 +16°C° 0 mm 2 mps 768 mmHg 76%
    06:00 +16°C° 0 mm 2 mps 768 mmHg 74%
    07:00 +18°C° 0 mm 2 mps 768 mmHg 69%
    08:00 +20°C° 0 mm 2 mps 768 mmHg 64%
    09:00 +23°C° 0 mm 2 mps 768 mmHg 59%
    10:00 +24°C° 0 mm 2 mps 768 mmHg 55%
    11:00 +25°C° 0 mm 2 mps 768 mmHg 52%
    12:00 +26°C° 0 mm 2 mps 768 mmHg 49%
    13:00 +27°C° 0 mm 2 mps 768 mmHg 48%
    14:00 +27°C° 0 mm 2 mps 767 mmHg 48%
    15:00 +28°C° 0 mm 2 mps 767 mmHg 47%
    16:00 +27°C° 0 mm 3 mps 767 mmHg 51%
    17:00 +27°C° 0 mm 3 mps 767 mmHg 55%
    18:00 +26°C° 0 mm 3 mps 767 mmHg 59%
    19:00 +24°C° 0 mm 3 mps 767 mmHg 63%
    20:00 +21°C° 0 mm 3 mps 768 mmHg 66%
    21:00 +19°C° 0 mm 3 mps 768 mmHg 69%
    22:00 +18°C° 0 mm 3 mps 768 mmHg 69%
    23:00 +17°C° 0 mm 3 mps 768 mmHg 69%

    29 June, Friday

    Time Temperature Precipitation Wind Pressure Humidity
    00:00 +16°C° 0 mm 3 mps 768 mmHg 69%
    01:00 +14°C° 0 mm 3 mps 768 mmHg 69%
    02:00 +14°C° 0 mm 3 mps 768 mmHg 68%
    03:00 +13°C° 0 mm 3 mps 768 mmHg 68%
    04:00 +14°C° 0 mm 3 mps 767 mmHg 69%
    05:00 +14°C° 0 mm 3 mps 767 mmHg 69%
    06:00 +16°C° 0 mm 3 mps 767 mmHg 69%
    07:00 +17°C° 0 mm 3 mps 767 mmHg 66%
    08:00 +19°C° 0 mm 4 mps 767 mmHg 62%
    09:00 +20°C° 0 mm 4 mps 767 mmHg 59%
    10:00 +22°C° 0 mm 4 mps 767 mmHg 57%
    11:00 +23°C° 0 mm 4 mps 766 mmHg 55%
    12:00 +25°C° 0 mm 4 mps 766 mmHg 53%
    13:00 +25°C° 0 mm 4 mps 766 mmHg 53%
    14:00 +25°C° 0 mm 4 mps 765 mmHg 53%
    15:00 +26°C° 0 mm 4 mps 765 mmHg 52%
    16:00 +25°C° 0 mm 4 mps 765 mmHg 55%
    17:00 +25°C° 0 mm 4 mps 765 mmHg 58%
    18:00 +23°C° 0 mm 4 mps 764 mmHg 61%
    19:00 +21°C° 0 mm 4 mps 764 mmHg 67%
    20:00 +20°C° 0 mm 4 mps 764 mmHg 72%
    21:00 +18°C° 0 mm 4 mps 765 mmHg 77%
    22:00 +17°C° 0 mm 4 mps 765 mmHg 80%
    23:00 +16°C° 0 mm 3 mps 764 mmHg 83%

    30 June, Saturday

    Time Temperature Precipitation Wind Pressure Humidity
    00:00 +14°C° 0 mm 3 mps 764 mmHg 85%
    01:00 +14°C° 0 mm 3 mps 764 mmHg 86%
    02:00 +13°C° 0 mm 3 mps 764 mmHg 87%
    03:00 +13°C° 0 mm 3 mps 764 mmHg 87%
    04:00 +15°C° 0 mm 2 mps 764 mmHg 85%
    05:00 +15°C° 0 mm 2 mps 763 mmHg 84%
    06:00 +16°C° 0 mm 2 mps 763 mmHg 82%
    07:00 +17°C° 0 mm 2 mps 763 mmHg 76%
    08:00 +19°C° 0 mm 2 mps 763 mmHg 71%
    09:00 +20°C° 0 mm 3 mps 763 mmHg 65%
    10:00 +23°C° 0 mm 2 mps 762 mmHg 61%
    11:00 +24°C° 0 mm 2 mps 762 mmHg 57%
    12:00 +25°C° 0 mm 2 mps 762 mmHg 53%
    13:00 +26°C° 0 mm 2 mps 761 mmHg 53%
    14:00 +26°C° 0 mm 2 mps 761 mmHg 52%
    15:00 +27°C° 0 mm 2 mps 761 mmHg 52%
    16:00 +26°C° 0 mm 2 mps 761 mmHg 56%
    17:00 +26°C° 0 mm 2 mps 760 mmHg 60%
    18:00 +25°C° 0 mm 2 mps 760 mmHg 64%
    19:00 +24°C° 0 mm 2 mps 760 mmHg 69%
    20:00 +21°C° 0 mm 2 mps 761 mmHg 74%
    21:00 +20°C° 0 mm 2 mps 761 mmHg 79%
    22:00 +19°C° 0 mm 2 mps 761 mmHg 79%
    23:00 +18°C° 0 mm 2 mps 761 mmHg 80%
    Show more